This is the latest recevied weather packets stored in our database for station/object N1OF. If no packets are shown the sender has not sent any weather packets the latest 10 day(s).
| Time | Temp. | Humidity | Pressure | Rain* | Wind** | Luminosity | Snow |
|---|---|---|---|---|---|---|---|
| 1788136770 | 73° F | 92% | 764.3 mmHg | 0 in | - | - | - |
| 1788136466 | 73° F | 92% | 764.1 mmHg | 0 in | - | - | - |
| 1788136166 | 73° F | 93% | 764.2 mmHg | 0 in | - | - | - |
| 1788135865 | 73° F | 93% | 764.1 mmHg | 0 in | - | - | - |
| 1788135560 | 73° F | 92% | 764.5 mmHg | 0 in | - | - | - |
| 1788135255 | 73° F | 92% | 764.3 mmHg | 0 in | - | - | - |
| 1788134953 | 73° F | 92% | 764.4 mmHg | 0 in | - | - | - |
| 1788134648 | 74° F | 92% | 764.5 mmHg | 0 in | - | - | - |
| 1788134346 | 74° F | 92% | 764.7 mmHg | 0 in | - | - | - |
| 1788134041 | 74° F | 92% | 764.5 mmHg | 0 in | - | - | - |
| 1788133736 | 74° F | 92% | 764.8 mmHg | 0 in | - | - | - |
| 1788133432 | 74° F | 92% | 764.5 mmHg | 0 in | - | - | - |
| 1788133128 | 74° F | 91% | 764.5 mmHg | 0 in | - | - | - |
| 1788132823 | 74° F | 91% | 764.5 mmHg | 0 in | - | - | - |
| 1788132519 | 74° F | 91% | 764.5 mmHg | 0 in | - | - | - |
| 1788132214 | 74° F | 91% | 764.7 mmHg | 0 in | - | - | - |
| 1788131911 | 75° F | 90% | 764.7 mmHg | 0 in | - | - | - |
| 1788131611 | 75° F | 90% | 764.8 mmHg | 0 in | - | - | - |
| 1788131310 | 75° F | 89% | 764.5 mmHg | 0 in | - | - | - |
| 1788131006 | 75° F | 88% | 764.8 mmHg | 0 in | - | - | - |
| 1788130705 | 75° F | 87% | 764.8 mmHg | 0 in | - | - | - |
| 1788130401 | 76° F | 85% | 764.7 mmHg | 0 in | - | - | - |
| 1788130100 | 77° F | 82% | 764.5 mmHg | 0.12 in | - | - | - |
| 1788129795 | 78° F | 78% | 764.4 mmHg | 0.12 in | - | - | - |
| 1788129492 | 78° F | 75% | 764.3 mmHg | 0 in | - | - | - |
* Rain latest hour (hover to see other rain measurements)
** Current wind speed in m/s (hover to see current wind gust speed)